1998-067TW

Last updated on Thu Jul 28 2022 00:02:05 GMT+0000 (Coordinated Universal Time)

1 53311U 98067TW 22208.25148738 .00008486 00000+0 15319-3 0 9992 2 53311 51.6407 138.1211 0003997 47.6338 112.8476 15.50612875 935
UTC large
Height (km)
Speed (km/s)
/
Latitude / Longitude
Inclination (degrees)
Orbital Period (minutes)
Azimuth
Elevation
Range (km)
Doppler Factor

Next 0 passes for location: London (51.5072 / 0.1276)

Sorry there are no passes over London.